Location: Lake Crest
(37.6062°N, 88.9176°W)
Time: 03:51:02
(UTC+00:00)

Cosmos 1331 Rocket - Pass Details

Date: 15 December 2019
Orbit: 749 x 779 km, 74.0° (Epoch: 20 January)

Event Time Altitude Azimuth Distance (km) Brightness Sun altitude
Rises 10:43:49 0° 186° (S) 3,178 7.3 -26.8°
Reaches altitude 10° 10:46:11 10° 183° (S) 2,259 6.5 -26.3°
Maximum altitude 10:51:12 59° 104° (ESE) 868 4.5 -25.3°
Drops below altitude 10° 10:56:16 10° 26° (NNE) 2,285 6.6 -24.3°
Sets 10:58:40 0° 23° (NNE) 3,218 7.4 -23.9°
